Tracking 35275 objects as of 8-Sep-2026
HD Live streaming from Space Station
objects crossing your sky now

COSMOS 57 DEB


COSMOS 57 DEB is no longer on orbit


NORAD ID: 1144
Int'l Code: 1965-012AY
Launch date: February 22, 1965
Source: Commonwealth of Independent States (former USSR) (CIS)
Launch site: TYURATAM MISSILE AND SPACE COMPLEX (TTMTR)
Decay date: 1965-03-21

Note: This is SATELLITE DEBRIS
Your satellite tracking list
Your tracking list is empty




NASA's NSSDC Master Catalog

Two Line Element Set (TLE):
1 01144U 65012 AY 65071.72095937  .00615470 +79909-3 +00000-0 0  9995
2 01144 064.7006 233.6993 0234133 056.5565 305.6607 15.91520399002911
Source of the keplerian elements: AFSPC